Temperature
7 6 6 6 6 7 7 7 7 8 9 8 8 9 10 10 11 11 12 13 14 16 17 18 18 19 19 19 19 19 18 18 17 16 15 15 14 14 13 13 13 12 12 12
6 5 6 6 6 6 6 6 7 7 8 8 8 8 9 10 10 11 12 13 14 15 16 17 17 18 18 18 18 18 18 17 16 16 15 15 14 14 13 13 12 12 12 11
5 6 7 6 5 5 6 6 6 6 7 7 7 8 9 10 11 12 12 13 14 15 16 17 17 17 18 17 17 18 17 16 15 15 15 14 14 13 13 12 12 11 11 11
5 5 6 6 5 5 6 6 6 6 6 6 6 7 8 9 10 10 11 13 14 15 16 16 17 17 17 17 17 17 16 15 15 14 14 14 14 13 12 12 12 11 11 10
5 5 5 5 6 6 5 7 7 6 6 5 6 6 8 8 9 10 10 12 14 15 16 16 17 17 17 17 16 16 15 14 14 13 13 13 13 13 12 11 11 11 10 10
6 6 6 5 6 6 7 7 6 6 6 6 6 6 7 8 9 10 10 13 14 15 16 16 17 17 16 16 15 15 14 13 13 12 13 13 13 12 12 11 11 10 10 9
6 6 6 6 6 6 6 5 6 6 6 6 7 7 8 8 10 11 11 12 15 15 15 15 16 16 15 15 14 14 13 13 12 12 12 12 12 12 12 11 10 10 9 9
5 5 5 6 6 5 5 5 5 5 5 5 6 7 9 9 10 12 13 14 14 15 15 15 15 16 15 15 14 13 12 12 12 12 12 11 11 11 11 10 10 9 8 8
5 5 6 6 6 6 5 5 6 6 5 5 6 7 8 9 9 10 11 12 13 14 14 14 14 14 14 14 13 13 12 11 11 11 11 11 10 10 10 9 9 8 8 7
5 4 5 6 5 6 6 6 5 5 6 6 6 6 8 9 10 10 10 10 12 13 13 12 12 12 13 13 12 11 11 11 11 10 10 10 10 9 9 9 8 7 7 6
5 4 5 5 5 6 5 5 5 6 6 5 5 8 10 9 10 10 10 11 11 11 11 10 10 10 11 11 11 11 11 11 10 10 10 10 9 9 8 8 7 7 6 6
5 5 5 5 6 7 6 6 6 6 5 5 6 8 11 10 10 9 9 10 10 10 9 8 8 8 9 10 10 10 10 10 10 10 9 9 9 8 7 7 6 6 5 5
5 5 5 5 6 6 5 5 6 6 6 6 6 8 10 10 9 9 9 8 8 7 7 6 7 8 9 10 10 10 9 9 9 9 9 8 8 7 7 6 6 5 5 4
7 5 5 6 7 6 5 6 6 5 6 6 7 8 10 10 9 8 8 7 6 6 5 5 6 8 9 9 9 9 9 9 9 8 8 8 7 6 6 6 5 4 4 3
7 6 6 6 7 6 6 6 6 6 6 6 8 8 9 10 9 8 7 7 6 5 5 5 6 8 9 9 9 9 8 8 8 8 7 7 6 6 5 5 4 4 3 2
6 6 6 7 8 7 7 7 7 7 7 7 7 8 10 9 8 7 7 7 6 5 5 5 6 8 9 9 8 8 8 7 7 7 6 6 5 5 4 4 3 3 2 1
6 6 7 7 8 8 8 8 8 7 8 8 7 9 10 9 9 8 7 7 6 6 5 5 7 8 8 8 8 8 7 7 6 6 6 5 5 4 4 3 2 2 1 1
7 6 7 7 8 9 10 9 9 8 9 9 9 9 9 9 8 8 8 8 7 6 5 6 7 8 8 8 8 7 7 6 6 5 5 4 4 3 3 2 1 1 1 0
7 7 7 7 8 9 10 9 9 8 9 9 9 9 9 8 8 8 9 8 8 7 7 8 8 9 8 8 7 7 6 6 5 5 4 4 3 3 2 1 1 0 0 -0
6 7 7 8 8 9 10 10 9 9 9 10 9 9 9 9 9 9 9 9 9 8 8 8 8 8 8 7 7 6 6 5 4 4 3 3 2 2 1 1 0 -0 -0 -1
7 7 7 8 8 9 10 9 10 10 11 10 9 9 9 8 9 8 9 9 9 9 8 8 8 8 8 7 6 6 5 4 4 3 2 2 1 1 0 0 -0 -1 -1 -1
7 7 7 7 8 9 10 9 9 10 9 9 9 9 8 7 7 7 8 9 9 8 8 8 8 7 7 6 6 5 4 3 3 2 2 1 1 0 -0 -0 -1 -1 -2 -2
6 7 7 7 9 9 9 9 9 9 9 8 7 7 8 6 5 6 7 7 8 8 7 7 7 6 6 5 5 5 4 3 2 2 1 1 0 -0 -1 -1 -1 -2 -2 -3
6 6 7 7 8 8 9 9 9 9 8 8 7 7 8 7 5 5 6 6 7 7 7 6 6 6 5 4 4 4 3 2 1 1 0 -0 -1 -1 -1 -2 -2 -3 -3 -4
7 6 7 7 8 8 9 9 9 9 8 7 6 6 7 7 6 6 6 6 6 6 6 6 6 5 4 3 2 2 2 1 1 0 -0 -1 -1 -2 -2 -2 -3 -3 -4 -5
6 7 7 8 9 8 8 8 8 9 8 7 7 5 5 7 6 6 6 6 6 6 5 5 4 4 2 2 1 1 1 0 -0 -1 -1 -1 -2 -2 -2 -3 -3 -4 -5 -6
Wind_Speed
2 3 7 10 11 7 2 5 8 6 7 8 14 21 17 12 13 14 13 12 13 13 12 8 7 7 6 6 7 8 11 12 14 12 11 9 8 8 8 8 12 13 14 14
2 9 10 7 6 6 8 13 13 10 8 9 15 25 20 15 17 18 18 17 15 13 9 7 7 7 7 7 8 9 12 13 12 10 7 6 7 7 8 8 10 13 14 13
10 4 5 8 8 8 11 11 10 9 7 8 13 20 17 14 18 20 19 19 16 16 14 11 10 9 8 8 10 10 11 11 11 12 13 13 9 7 6 8 7 9 13 14
8 7 6 6 8 10 11 8 11 10 8 7 5 10 8 8 12 15 15 15 16 16 15 12 11 10 10 9 9 10 11 12 13 14 17 19 12 9 6 7 8 8 12 13
7 5 8 11 10 9 7 5 8 9 9 11 9 10 12 7 12 12 13 15 16 16 16 15 14 14 11 10 10 11 12 12 12 11 15 15 13 11 10 10 11 10 8 10
11 7 6 7 6 10 6 3 6 7 7 14 14 11 13 8 11 11 13 14 16 16 16 14 12 11 10 10 11 12 13 12 10 11 12 17 19 18 15 12 10 8 6 6
9 11 9 6 4 5 8 6 4 6 9 10 8 11 14 10 10 14 16 15 15 14 13 13 15 16 16 15 14 13 15 13 11 12 12 15 18 17 15 13 11 9 6 5
5 7 9 9 11 8 12 12 9 7 7 6 6 13 12 11 13 14 16 14 12 11 12 15 18 19 19 18 17 16 16 14 13 13 13 13 13 11 10 10 9 8 7 6
6 6 4 8 8 9 7 12 10 7 7 7 8 9 11 9 11 15 16 14 13 11 13 15 17 19 19 19 17 17 17 15 14 14 14 13 12 12 12 10 9 8 7 6
7 7 6 5 7 11 9 5 6 9 7 10 9 10 10 9 11 13 14 14 13 11 12 14 16 16 16 16 15 15 17 17 15 14 13 12 12 12 12 11 10 8 7 7
7 6 5 4 11 14 14 10 10 7 6 6 7 9 5 5 8 11 12 11 11 13 15 16 16 15 15 16 16 16 16 17 15 14 14 14 12 12 11 10 9 8 7 7
9 6 8 11 11 12 14 15 14 9 8 6 7 12 4 3 9 11 9 5 7 11 13 15 16 17 17 17 16 16 15 16 14 14 15 14 12 12 11 10 8 8 7 6
10 6 6 6 4 7 9 14 16 13 7 9 10 12 3 6 11 10 5 2 8 13 15 16 16 16 16 16 16 15 15 15 14 15 15 13 12 11 10 9 8 7 7 6
10 8 10 11 10 6 9 12 16 16 12 13 17 22 21 15 13 10 2 7 11 13 15 15 15 14 15 15 15 15 14 14 15 14 14 13 11 10 9 8 8 7 6 6
8 8 12 19 21 18 18 18 18 21 20 14 15 18 21 13 9 6 3 10 13 14 15 15 15 14 15 15 14 14 14 13 14 14 13 11 10 9 9 8 7 6 6 5
7 7 9 16 17 18 19 19 19 20 20 22 21 21 13 7 4 2 6 12 14 15 15 14 15 15 15 16 15 15 14 12 13 13 12 11 10 9 8 8 7 6 5 3
5 5 6 9 10 10 9 11 16 14 13 13 18 18 13 12 9 5 9 12 14 15 14 15 15 15 15 15 16 15 13 13 13 13 11 10 10 9 8 7 6 5 3 3
7 5 4 7 8 5 6 5 9 13 14 14 14 13 12 9 6 3 7 11 11 13 14 14 14 13 13 13 14 14 13 13 13 12 10 9 9 9 7 6 5 4 2 2
11 7 4 4 6 7 7 2 4 5 6 12 16 15 10 4 3 2 3 8 9 11 12 13 13 15 15 15 15 15 13 12 12 11 10 9 9 8 7 6 4 2 2 2
8 7 5 4 5 4 5 3 3 3 5 7 12 13 8 3 1 1 3 7 11 13 13 14 15 16 15 14 15 16 14 12 11 10 9 8 8 8 7 5 3 2 1 3
5 5 7 6 4 6 6 3 4 2 5 3 7 9 7 5 1 4 7 8 12 14 16 16 16 15 14 15 15 15 13 11 10 11 10 9 8 7 6 4 2 2 2 4
7 6 5 5 4 6 5 2 3 4 4 4 2 4 6 6 7 8 10 12 14 16 16 16 16 14 12 13 15 15 12 11 11 11 10 8 7 5 5 4 3 3 4 5
7 7 5 7 7 4 3 3 4 3 4 3 0 3 11 10 8 10 11 13 13 15 14 14 16 15 11 10 13 16 11 11 12 11 9 7 7 5 4 3 3 3 3 4
4 4 4 5 7 6 4 2 2 4 3 3 5 8 8 12 13 14 13 13 13 14 14 15 16 16 12 10 11 13 12 11 11 10 8 6 5 4 4 3 2 3 4 5
5 6 4 5 7 5 2 1 3 5 8 10 11 10 13 17 16 15 14 13 13 13 12 13 15 15 13 12 12 11 10 11 11 9 6 5 4 3 3 3 2 4 4 5
5 7 6 6 5 4 1 4 6 7 8 10 14 14 10 13 17 15 14 12 13 13 13 14 15 15 13 13 11 9 9 9 9 7 5 4 3 2 3 4 5 7 8 12
Wind_Direction
140 176 212 209 210 222 240 257 267 268 303 307 278 279 277 270 269 269 264 257 252 249 253 248 224 192 171 167 157 148 144 145 144 141 136 129 118 109 99 96 100 102 103 101
196 238 230 214 214 233 249 264 271 279 267 274 280 280 275 256 255 254 254 254 252 249 247 226 201 182 179 174 162 150 151 152 151 146 132 121 118 106 98 97 94 98 101 99
211 245 210 199 207 224 238 245 254 264 301 276 285 285 262 240 236 242 243 240 241 239 240 225 200 195 183 180 170 159 153 147 138 131 122 117 108 105 103 101 94 90 95 94
239 247 253 230 219 212 251 227 234 250 261 270 239 285 264 232 246 245 243 236 234 232 228 217 195 190 188 181 163 150 146 142 142 142 142 143 142 135 128 124 112 96 91 92
230 217 217 231 228 201 228 222 227 235 244 261 239 263 276 203 249 251 245 239 234 227 219 208 195 190 177 161 153 145 140 140 144 145 146 137 127 122 125 118 109 98 86 85
243 218 210 217 221 208 211 263 270 245 247 259 231 226 273 210 231 241 241 236 233 226 216 203 183 162 153 148 145 144 142 139 138 137 138 137 134 135 133 126 116 106 95 82
255 235 218 183 201 195 188 212 248 233 226 248 182 211 254 228 214 225 240 240 235 225 206 184 167 163 161 158 154 149 145 138 135 133 131 135 136 136 135 131 125 119 106 92
264 268 213 199 207 203 195 196 212 227 234 267 213 231 252 240 230 233 238 239 235 217 194 181 174 170 166 162 156 152 146 139 134 130 126 124 124 123 122 119 120 114 110 108
231 267 249 210 194 192 197 212 219 248 259 267 252 263 284 256 250 246 245 240 231 210 188 180 173 169 164 160 157 152 144 137 132 129 124 120 117 118 118 112 106 106 108 108
203 262 259 223 182 213 214 191 192 218 240 249 258 255 256 281 281 273 258 244 228 199 179 171 168 164 158 151 142 140 139 135 130 127 126 122 116 115 116 113 108 105 102 99
194 237 268 210 207 211 205 215 217 224 222 229 265 262 222 254 297 295 276 251 214 184 173 166 158 149 139 136 136 136 133 130 127 123 120 118 115 113 110 109 108 108 103 100
199 234 257 238 228 213 213 218 213 224 230 226 254 266 225 284 329 326 310 269 184 163 153 147 142 139 138 137 136 134 132 129 126 123 120 117 115 113 109 108 108 107 102 96
176 218 272 288 243 206 226 225 222 228 240 237 246 266 247 314 330 335 330 139 136 135 134 135 137 139 139 136 134 132 130 127 125 123 120 118 116 114 112 112 110 105 102 94
185 217 229 250 264 255 244 231 222 222 236 246 246 264 282 299 314 324 330 138 135 136 138 139 139 137 136 134 133 130 126 127 125 122 121 120 119 118 117 113 108 103 101 94
206 247 249 260 268 268 262 251 233 227 230 241 256 264 276 292 300 294 190 150 144 145 146 146 142 138 134 131 129 128 127 126 125 122 121 121 120 116 113 108 104 99 92 86
203 255 274 276 271 266 264 253 240 235 235 240 258 271 274 290 300 262 173 164 160 159 156 148 143 141 140 138 135 132 129 127 125 123 123 124 121 115 111 108 104 95 84 67
209 242 278 285 293 285 268 246 229 227 226 228 245 256 278 293 286 241 186 177 171 165 159 155 152 149 144 142 140 137 133 127 123 123 125 125 121 114 110 107 98 87 75 46
219 232 266 289 302 292 284 265 221 225 233 223 239 259 274 281 293 262 186 173 164 159 156 151 145 139 134 130 130 126 127 126 124 124 125 123 118 113 108 99 89 77 62 20
204 211 253 281 296 290 298 284 176 198 248 225 233 249 259 284 333 347 138 151 151 151 149 145 140 137 135 135 135 130 126 125 125 127 125 122 119 116 108 96 84 71 32 355
189 195 229 279 301 304 308 320 146 135 289 232 218 234 233 212 282 280 111 123 128 129 132 132 131 131 133 136 136 131 131 130 130 128 121 115 114 114 109 102 89 56 7 332
168 195 220 244 269 280 289 299 127 141 283 292 209 220 201 199 225 92 95 100 117 122 125 128 130 133 137 139 135 131 130 128 124 118 112 107 106 108 108 98 79 37 2 346
183 187 203 197 230 268 319 57 176 254 298 319 244 194 156 123 90 87 96 106 113 118 121 125 124 123 128 133 130 125 122 119 116 113 109 105 100 98 97 87 60 26 6 346
202 196 194 202 223 259 281 265 289 299 294 316 268 126 129 119 111 107 105 108 111 116 117 119 121 118 112 115 125 123 122 121 115 110 107 105 97 85 81 73 36 6 355 336
243 194 201 258 265 264 270 284 352 7 23 56 98 115 120 121 122 115 112 110 111 112 116 120 119 116 107 100 105 117 121 118 114 111 109 105 97 80 51 39 22 352 328 317
223 176 207 259 274 291 297 87 87 80 82 85 83 91 116 122 119 118 115 113 113 113 114 116 117 114 109 105 103 108 114 114 110 108 104 96 85 70 33 7 332 315 281 287
196 181 185 227 243 208 232 114 119 109 101 106 108 100 95 114 119 115 111 112 113 112 111 109 108 109 108 106 102 99 105 112 113 108 99 89 74 46 22 349 328 322 320 322
Height
1477 1481 1480 1479 1480 1480 1481 1482 1480 1477 1473 1474 1466 1457 1452 1450 1449 1446 1444 1443 1443 1443 1446 1449 1451 1452 1453 1455 1457 1459 1461 1463 1466 1469 1473 1478 1482 1486 1490 1493 1496 1498 1500 1501
1478 1478 1475 1476 1478 1480 1481 1481 1479 1477 1474 1471 1463 1450 1444 1442 1440 1438 1437 1436 1436 1437 1440 1442 1445 1446 1448 1450 1452 1455 1457 1459 1461 1465 1469 1474 1479 1483 1487 1490 1493 1496 1498 1500
1475 1472 1470 1474 1477 1479 1478 1480 1478 1478 1474 1469 1465 1442 1431 1427 1426 1425 1425 1426 1427 1430 1432 1435 1438 1441 1444 1446 1448 1450 1453 1455 1458 1462 1466 1471 1476 1480 1484 1488 1491 1494 1496 1498
1473 1470 1471 1472 1473 1475 1474 1472 1473 1474 1476 1471 1465 1449 1424 1421 1418 1416 1416 1416 1417 1420 1424 1427 1431 1435 1438 1441 1444 1447 1449 1452 1455 1459 1463 1467 1472 1477 1481 1485 1488 1491 1494 1495
1467 1467 1468 1468 1468 1470 1470 1469 1470 1470 1471 1468 1461 1458 1421 1419 1414 1410 1409 1408 1408 1410 1413 1417 1422 1428 1432 1436 1439 1442 1445 1449 1453 1457 1462 1467 1471 1475 1479 1483 1486 1489 1492 1493
1462 1462 1462 1462 1461 1464 1466 1468 1468 1466 1467 1457 1447 1455 1421 1414 1406 1403 1401 1399 1398 1400 1403 1408 1414 1420 1425 1430 1435 1439 1442 1446 1450 1456 1461 1465 1469 1473 1476 1480 1484 1488 1490 1491
1457 1455 1455 1457 1460 1461 1465 1469 1468 1463 1455 1445 1437 1437 1411 1400 1396 1393 1392 1390 1389 1391 1395 1399 1404 1411 1417 1424 1430 1434 1439 1443 1449 1454 1460 1464 1469 1472 1476 1480 1483 1486 1488 1489
1458 1455 1450 1449 1451 1455 1457 1460 1462 1462 1455 1444 1434 1422 1399 1390 1387 1384 1382 1382 1383 1385 1387 1391 1396 1403 1410 1418 1424 1430 1436 1441 1447 1453 1458 1463 1468 1472 1476 1479 1482 1485 1486 1487
1455 1451 1445 1444 1445 1450 1452 1451 1449 1452 1445 1442 1428 1412 1396 1384 1383 1379 1376 1375 1375 1378 1381 1385 1391 1397 1405 1412 1419 1426 1432 1439 1445 1451 1457 1462 1467 1471 1475 1478 1481 1483 1484 1485
1451 1452 1444 1440 1443 1443 1443 1443 1446 1444 1437 1431 1419 1410 1393 1383 1380 1375 1372 1369 1368 1372 1376 1381 1386 1393 1400 1408 1416 1425 1432 1438 1444 1450 1456 1461 1466 1470 1474 1477 1479 1481 1482 1483
1446 1449 1442 1439 1436 1433 1438 1438 1435 1433 1430 1429 1420 1398 1378 1378 1375 1370 1365 1362 1362 1365 1370 1376 1382 1390 1397 1405 1414 1423 1430 1436 1443 1449 1455 1461 1465 1469 1473 1476 1478 1479 1480 1480
1442 1444 1437 1431 1422 1422 1424 1424 1426 1425 1422 1420 1414 1390 1371 1372 1369 1365 1360 1358 1358 1362 1368 1374 1381 1387 1396 1404 1413 1421 1429 1435 1442 1449 1455 1460 1464 1468 1471 1474 1476 1477 1477 1477
1437 1439 1433 1424 1421 1421 1420 1416 1417 1417 1415 1411 1407 1386 1367 1368 1367 1365 1362 1359 1360 1363 1369 1375 1381 1388 1396 1404 1413 1421 1428 1435 1442 1448 1454 1459 1463 1467 1470 1472 1474 1475 1475 1474
1430 1430 1429 1421 1410 1411 1411 1408 1408 1410 1406 1400 1392 1379 1368 1368 1367 1365 1363 1362 1363 1367 1371 1376 1382 1389 1397 1405 1414 1422 1429 1436 1442 1448 1454 1458 1463 1466 1469 1470 1471 1472 1472 1472
1425 1422 1417 1410 1405 1403 1400 1397 1397 1398 1395 1393 1379 1375 1368 1367 1367 1365 1364 1364 1366 1370 1374 1378 1383 1390 1398 1407 1415 1423 1430 1437 1443 1448 1454 1458 1462 1465 1467 1468 1469 1470 1470 1469
1419 1416 1411 1402 1394 1391 1387 1384 1384 1385 1385 1383 1379 1372 1364 1365 1364 1363 1363 1364 1367 1371 1376 1380 1386 1392 1400 1408 1415 1423 1430 1437 1443 1448 1453 1457 1460 1463 1465 1466 1467 1467 1467 1467
1414 1413 1407 1395 1387 1384 1377 1371 1372 1373 1372 1376 1375 1366 1362 1363 1362 1362 1362 1364 1367 1371 1377 1382 1387 1394 1402 1409 1417 1424 1431 1438 1444 1448 1452 1456 1459 1462 1463 1464 1465 1465 1465 1464
1408 1409 1405 1396 1388 1378 1369 1361 1362 1364 1365 1367 1365 1361 1361 1361 1360 1360 1361 1364 1368 1373 1378 1384 1390 1397 1404 1412 1420 1427 1433 1439 1444 1448 1452 1455 1458 1460 1461 1463 1463 1463 1462 1461
1401 1404 1401 1395 1385 1376 1365 1361 1361 1363 1362 1359 1360 1360 1360 1361 1361 1360 1360 1364 1368 1374 1379 1385 1391 1398 1406 1414 1421 1427 1434 1439 1444 1448 1451 1454 1457 1459 1460 1461 1461 1461 1460 1458
1396 1399 1400 1394 1387 1378 1367 1361 1359 1363 1361 1353 1355 1357 1359 1363 1364 1363 1362 1365 1370 1376 1381 1387 1394 1401 1408 1415 1422 1428 1434 1439 1443 1448 1451 1454 1456 1458 1459 1459 1459 1458 1456 1454
1394 1396 1395 1392 1389 1378 1366 1362 1362 1367 1361 1353 1353 1354 1357 1361 1362 1364 1364 1368 1373 1378 1383 1389 1395 1402 1409 1416 1423 1429 1434 1440 1444 1448 1451 1453 1455 1456 1457 1457 1456 1455 1453 1450
1388 1390 1390 1390 1387 1380 1365 1363 1365 1362 1356 1353 1352 1353 1356 1360 1363 1365 1367 1371 1375 1380 1386 1391 1397 1404 1411 1418 1424 1430 1436 1440 1444 1448 1450 1452 1454 1455 1455 1455 1453 1451 1449 1445
1383 1382 1382 1381 1377 1367 1365 1364 1361 1359 1356 1354 1353 1353 1356 1360 1364 1367 1370 1374 1379 1384 1389 1395 1400 1406 1414 1421 1427 1432 1437 1441 1445 1448 1450 1452 1453 1453 1453 1452 1450 1448 1444 1441
1377 1375 1377 1375 1368 1364 1363 1362 1360 1358 1356 1354 1354 1355 1357 1360 1365 1369 1373 1378 1383 1388 1393 1398 1404 1410 1417 1424 1430 1435 1438 1442 1445 1448 1449 1451 1451 1451 1451 1449 1447 1444 1440 1436
1370 1373 1373 1371 1365 1362 1360 1361 1360 1359 1358 1357 1358 1359 1362 1364 1369 1373 1377 1383 1387 1392 1398 1403 1409 1414 1420 1427 1432 1437 1440 1443 1446 1447 1449 1450 1450 1449 1448 1446 1444 1440 1437 1433
1366 1367 1368 1366 1361 1362 1361 1360 1361 1361 1361 1362 1362 1364 1368 1371 1373 1378 1383 1388 1393 1398 1403 1408 1414 1419 1425 1430 1434 1438 1442 1444 1446 1447 1448 1448 1448 1447 1445 1443 1441 1438 1435 1431